sat.trackr.live / text

‹ back to catalog

STARLINK-30981

NORAD 58494 · 2023-186X

PAYLOAD ACTIVE UNKNOWN

§ Identity

Operator
Country
US
Launch date
2023-12-03
Launch site
AFETR
Launch vehicle
Mass (kg)
RCS (m²)

Purposes: comms

External: N2YO · Heavens-Above · Gunter

§ Orbital elements

Epoch: 2026-05-24T22:59:00.909024Z

Period
94.27 min
Inclination
43.0030°
Eccentricity
0.0001147
Mean motion
15.27572163 rev/d
Perigee alt
482.3 km
Apogee alt
483.9 km
Semi-major
6,861.2 km
B*
5.2642e-5
RAAN
352.6439°
Arg perigee
258.8476°
Mean anomaly
101.2246°
Rev number
13,755

§ Raw data

STARLINK-309811 58494U 23186X   26144.95764941  .00001186  00000+0  52642-4 0  99902 58494  43.0030 352.6439 0001147 258.8476 101.2246 15.27572163137553

JSON: /api/v1/satellites/58494 · /tle

For live sub-satellite position, see the globe view (requires WebGL).

§ Visibility from observer

Set your observer location to see the next 7 days of passes ≥ 10°. The values pass through the URL so the page stays shareable.

No JS? Fill the form by hand. The geolocation button needs JavaScript.